Regional Weather Roundup
Issued by NWS

Home | Current Version | Previous Version | Text Only | Print | Product List | Glossary On
Versions: 1 2 3 4 5 6 7 8 9 10 11 12 13 14 15 16 17 18 19 20 21 22 23 24 25 26 27 28 29 30 31 32 33 34 35 36 37 38 39 40 41 42 43 44 45 46 47 48 49 50
000
ASUS43 KOAX 192145
RWRNE

WEATHER ROUNDUP FOR NEBRASKA
NATIONAL WEATHER SERVICE OMAHA NE
400 PM CST FRI DEC 19 2014

NOTES: SATELLITE DATA IS BEING USED TO AUGMENT CLOUD COVER ABOVE
       12000 FEET.
       "FAIR" INDICATES FEW OR NO CLOUDS BELOW 12,000 FEET WITH NO
       SIGNIFICANT WEATHER AND/OR OBSTRUCTIONS TO VISIBILITY.

  * THESE STATIONS DO NOT REPORT WEATHER SUCH AS RAIN...SNOW OR FOG.

NEZ001>004-019>022-054>056-192300-
NEBRASKA PANHANDLE

CITY           SKY/WX    TMP DP  RH WIND       PRES   REMARKS
KIMBALL        SUNNY     43  20  39 W21G28    29.97S
$$

NEZ057>060-069>072-079>082-192300-
SOUTHWEST NEBRASKA

CITY           SKY/WX    TMP DP  RH WIND       PRES   REMARKS
LEXINGTON      SUNNY     35  30  80 S8        30.03S WCI  29
OGALLALA       SUNNY     35  29  77 W8        30.01S WCI  29
$$

NEZ005>010-023>029-035>040-094-192300-
NORTH CENTRAL NEBRASKA

CITY           SKY/WX    TMP DP  RH WIND       PRES   REMARKS
AINSWORTH      CLEAR     32  26  80 S5        29.97R WCI  27
O`NEILL        CLOUDY    29  29 100 S8        30.02S FOG     WCI  21
ORD            CLOUDY    27  26  96 S13       30.03F FOG     WCI  16
THEDFORD       CLEAR     42  30  62 SW8       29.97R
$$

NEZ041-046>049-061>064-073>077-083>087-192300-
SOUTH CENTRAL NEBRASKA

CITY           SKY/WX    TMP DP  RH WIND       PRES   REMARKS
AURORA         CLOUDY    34  32  92 S13       30.08S WCI  25
HEBRON         CLOUDY    33  30  87 S7        30.12F FOG     WCI  27
HOLDREGE       PTSUNNY   31  30  96 S5        30.05S FOG     WCI  26
KEARNEY *      CLOUDY    30  28  93 S10       30.05F WCI  21
YORK           CLOUDY    32  32 100 S10       30.10S FOG     WCI  24
$$

NEZ011>018-030>034-042>045-192300-
NORTHEAST NEBRASKA

CITY           SKY/WX    TMP DP  RH WIND       PRES   REMARKS
ALBION         CLOUDY    31  28  88 S10G16    30.07R FOG     WCI  23
BLAIR          CLOUDY    33  29  86 S10       30.14S WCI  25
COLUMBUS *     CLOUDY    34  27  75 S10       30.11S WCI  26
FREMONT        CLOUDY    34  29  83 SE8       30.14S WCI  27
$$

NEZ050>053-065>068-078-088>093-192300-
SOUTHEAST NEBRASKA

CITY           SKY/WX    TMP DP  RH WIND       PRES   REMARKS
BEATRICE       CLOUDY    32  31  94 S9        30.15S FOG     WCI  24
NEBRASKA CITY  CLOUDY    31  31  99 S6        30.18R FOG     WCI  25
PLATTSMOUTH    CLOUDY    31  29  90 S7        30.17S FOG     WCI  24
$$

NEZ044-045-051>053-067-192300-
OMAHA AREA

CITY           SKY/WX    TMP DP  RH WIND       PRES   REMARKS
BLAIR          CLOUDY    33  29  86 S10       30.14S WCI  25
FREMONT        CLOUDY    34  29  83 SE8       30.14S WCI  27
MILLARD        CLOUDY    33  30  88 S6        30.16S WCI  28
PLATTSMOUTH    CLOUDY    31  29  90 S7        30.17S FOG     WCI  24
WAHOO          CLOUDY    34  29  82 S9        30.13F WCI  26
$$



USA.gov is the U.S. government's official web portal to all federal, state and local government web resources and services.